{"data":{"norad_id":68473,"intl_designator":"2026-067BK","name":"VIGORIDE-7","alt_names":[],"object_type":"PAYLOAD","status":"ACTIVE","operator":null,"country":"US","launch_date":"2026-03-30","launch_site_code":"AFWTR","launch_vehicle":null,"mission":null,"orbit_class":"UNKNOWN","rcs_meters":null,"size_class":null,"mass_kg":null,"dimensions":null,"purposes":[],"wikipedia_slug":null,"has_3d_model":false,"image_url":null,"decayed_at":null,"tle_current":{"epoch":"2026-09-20T03:00:14.408064Z","epoch_age_seconds":101366,"freshness":"FRESH","line1":"1 68473U 26067BK  26263.12516676  .00006275  00000+0  26438-3 0  9997","line2":"2 68473  97.4639 221.1377 0009665 163.5936 196.5615 15.23654350 26386","mean_motion":15.2365435,"eccentricity":0.0009665,"inclination_deg":97.4639,"raan_deg":221.1377,"arg_perigee_deg":163.5936,"mean_anomaly_deg":196.5615,"bstar":0.00026438,"rev_number":2638,"period_min":94.509624180839,"perigee_km":488.18641365707,"apogee_km":501.47185719686,"semimajor_km":6872.966135427,"source":"CELESTRAK","updated_at":"2026-09-20T09:00:24.241911Z"}}}